Weather Roundup
Issued by NWS Chicago, IL

Home | Current Version | Previous Version | Text Only | Print | Product List | Glossary On
Versions: 1 2 3 4 5 6 7 8 9 10 11 12 13 14 15 16 17 18 19 20 21 22 23 24 25 26 27 28 29 30 31 32 33 34 35 36 37 38 39 40 41 42 43 44 45 46 47 48 49 50
000
NZUS59 KLOT 300612
HRRLOT

CHICAGO AREA WEATHER ROUNDUP
NATIONAL WEATHER SERVICE CHICAGO/ROMEOVILLE IL
100 AM CDT THU JUL 30 2015

NOTE: "FAIR" INDICATES FEW OR NO CLOUDS BELOW 12,000 FEET WITH NO
SIGNIFICANT WEATHER AND/OR OBSTRUCTIONS TO VISIBILITY.

* THESE STATIONS ARE NOT UNDER NWS QUALITY CONTROL. THEY ALSO MAY NOT
  REPORT WEATHER SUCH AS PRECIPITATION OR FOG.

ILZ005-006-012>014-019>023-300700-
NORTHEAST ILLINOIS

CITY           SKY/WX    TMP DP  RH WIND       PRES   REMARKS
OHARE          CLEAR     70  56  61 W8        30.02S
6HR MIN TEMP:  70; 6HR MAX TEMP:  82;

MIDWAY         CLEAR     74  55  51 W7        30.02S
6HR MIN TEMP:  74; 6HR MAX TEMP:  85;

AURORA         CLEAR     62  57  83 W3        30.05S
6HR MIN TEMP:  62; 6HR MAX TEMP:  79;

LANSING*       CLEAR     68  55  63 W5        30.03F
JOLIET*        CLEAR     68  61  78 CALM      30.04F
WAUKEGAN       CLEAR     70  54  56 VRB5      30.00S
6HR MIN TEMP:  70; 6HR MAX TEMP:  80;

DUPAGE AIRPORT CLEAR     67  57  70 W6        30.03S
6HR MIN TEMP:  67; 6HR MAX TEMP:  81;

WHEELING       CLEAR     72  54  53 W6        30.03R
6HR MIN TEMP:  72; 6HR MAX TEMP:  83;

KANKAKEE*      CLEAR     65  62  89 CALM      30.06S
MORRIS*        CLEAR     64  60  88 W6        30.04F
LEWIS AIRPORT* CLEAR     64  58  81 W7        30.04S
NORTHERLY IS     N/A     75  54  47 W7          N/A
$$

WIZ051-052-058>065-066-070>072-300700-
SOUTHEAST WISCONSIN

CITY           SKY/WX    TMP DP  RH WIND       PRES   REMARKS
MILWAUKEE      CLEAR     72  53  51 W8        29.99S
6HR MIN TEMP:  72; 6HR MAX TEMP:  84;

KENOSHA*       CLEAR     64  55  72 W7        30.01S
RACINE*        CLEAR     69  54  58 W7        30.01S
BURLINGTON     CLEAR     60  54  80 SW5       30.01S
WAUKESHA       CLEAR     66  52  59 W9        30.00F
WEST BEND      CLEAR     68  52  56 W9        29.98S
$$

INZ001>003-010>013-019-020-300700-
NORTHWEST INDIANA

CITY           SKY/WX    TMP DP  RH WIND       PRES   REMARKS
GARY*          CLEAR     72  59  63 W6        30.03F
6HR MIN TEMP:  72; 6HR MAX TEMP:  83;

MICHIGAN CITY* NOT AVBL
RENSSELAER*    NOT AVBL
VALPARAISO     PTCLDY    66  58  75 W9        30.03S
$$

LMZ740>746-300700-
SOUTHERN LAKE MICHIGAN

STATION/POSITION TIME  SKY/WX   TEMP WIND        PRES    VSBY
                                AIR  DIR/SP/G
                 (UTC)          (F)  (DEG/KT/KT) (MB)    (MI)
HARRISON CRIB    0500            76  280/ 15/ 17   N/A
BURNHAM HARBOR   0600            74  280/  5/ 13   N/A
CALUMET HARBOR   NOT AVBL
BURNS HARBOR     0500            74  250/ 10/ 11 1016.9R
MICHIGAN CITY    0500            75  220/ 16/ 18   N/A
$$

ABBREVIATIONS USED IN REMARKS
   TC - TEMPERATURE IN CELSIUS
  WCI - WIND CHILL INDEX
   HX - HEAT INDEX
  VSB - VISIBILITY
$$


USA.gov is the U.S. government's official web portal to all federal, state and local government web resources and services.